Change the Weather History Date:

Friday, February 1, 2013

  Actual Average Record
Temperature  
Mean Temperature 40 °F -  
Max Temperature 62 °F 53 °F 82 °F (1967)
Min Temperature 19 °F 26 °F -17 °F (1951)
Degree Days  
Heating Degree Days 24    
Moisture  
Dew Point 17 °F    
Average Humidity 43    
Maximum Humidity 80    
Minimum Humidity 16    
Precipitation  
Precipitation 0.00 in - - ()
Sea Level Pressure  
Sea Level Pressure 30.15 in    
Wind  
Wind Speed 12 mph (SW)    
Max Wind Speed 29 mph    
Max Gust Speed 38 mph    
Visibility 10 miles    
Events      
Averages and records for this station are not official NWS values.
T = Trace of Precipitation, MM = Missing Value Source: NWS Daily Summary

Daily Weather History Graph

Daily Weather History Graph

Search for Another Location

Airport or City:

Trip Planner

Search our weather history database for the weather conditions in past years. The results will help you decide how hot, cold, wet, or windy it might be!

Date:

Astronomy

Feb. 01, 2013 Rise Set
Actual Time 6:49 AM MST 5:22 PM MST
Civil Twilight 6:23 AM MST 5:48 PM MST
Nautical Twilight 5:53 AM MST 6:18 PM MST
Astronomical Twilight 5:23 AM MST 6:48 PM MST
Moon 11:13 PM MST (2/1) 9:41 AM MST (2/1)
Length of Visible Light 11h 25m
Length of Day
10h 32m
Waning Gibbous, 69% of the Moon is Illuminated
Feb 1
Waning Gibbous
Feb 3
Last Quarter
Feb 10
New
Feb 17
First Quarter
Feb 25
Full

Hourly Weather History & Observations

Time (MST) Temp. Windchill Dew Point Humidity Pressure Visibility Wind Dir Wind Speed Gust Speed Precip Events Conditions
12:15 AM 33.8 °F 25.8 °F 17.6 °F 52% 30.25 in 10.0 mi SSE 10.4 mph - N/A   Clear
12:35 AM 30.2 °F 21.9 °F 15.8 °F 55% 30.25 in 10.0 mi SSE 9.2 mph - N/A   Clear
1:15 AM 26.6 °F 20.0 °F 12.2 °F 55% 30.25 in 10.0 mi South 5.8 mph - N/A   Clear
1:35 AM 26.6 °F 17.5 °F 14.0 °F 59% 30.24 in 10.0 mi SSW 9.2 mph - N/A   Clear
1:55 AM 26.6 °F 19.1 °F 15.8 °F 64% 30.25 in 10.0 mi SSW 6.9 mph - N/A   Clear
2:15 AM 26.6 °F 21.2 °F 15.8 °F 64% 30.26 in 10.0 mi SSW 4.6 mph - N/A   Clear
2:35 AM 26.6 °F 21.2 °F 15.8 °F 64% 30.25 in 10.0 mi South 4.6 mph - N/A   Clear
2:55 AM 26.6 °F 22.6 °F 17.6 °F 69% 30.26 in 10.0 mi South 3.5 mph - N/A   Clear
3:15 AM 24.8 °F 17.9 °F 15.8 °F 69% 30.26 in 10.0 mi SE 5.8 mph - N/A   Clear
3:35 AM 24.8 °F 14.0 °F 17.6 °F 74% 30.24 in 10.0 mi SSE 11.5 mph - N/A   Clear
3:55 AM 24.8 °F 15.3 °F 15.8 °F 69% 30.24 in 10.0 mi SSE 9.2 mph - N/A   Clear
4:15 AM 26.6 °F 17.5 °F 17.6 °F 69% 30.23 in 10.0 mi SSE 9.2 mph - N/A   Clear
4:35 AM 26.6 °F 16.8 °F 15.8 °F 64% 30.22 in 10.0 mi SSE 10.4 mph - N/A   Clear
5:15 AM 23.0 °F 18.4 °F 15.8 °F 74% 30.22 in 10.0 mi SSE 3.5 mph - N/A   Clear
5:35 AM 23.0 °F 15.8 °F 15.8 °F 74% 30.22 in 10.0 mi SSE 5.8 mph - N/A   Clear
5:55 AM 23.0 °F 13.9 °F 17.6 °F 80% 30.22 in 10.0 mi SSE 8.1 mph - N/A   Clear
6:15 AM 21.2 °F 12.6 °F 15.8 °F 80% 30.21 in 10.0 mi SSE 6.9 mph - N/A   Clear
6:35 AM 19.4 °F 9.5 °F 14.0 °F 80% 30.21 in 10.0 mi SSW 8.1 mph - N/A   Clear
6:55 AM 21.2 °F 11.7 °F 15.8 °F 80% 30.21 in 10.0 mi SSW 8.1 mph - N/A   Clear
7:15 AM 23.0 °F 14.7 °F 17.6 °F 80% 30.22 in 10.0 mi SSW 6.9 mph - N/A   Clear
7:35 AM 24.8 °F 15.3 °F 19.4 °F 80% 30.21 in 10.0 mi SSW 9.2 mph - N/A   Clear
8:15 AM 30.2 °F 19.3 °F 23.0 °F 75% 30.21 in 10.0 mi SSW 15.0 mph - N/A   Clear
8:35 AM 33.8 °F 24.8 °F 23.0 °F 65% 30.22 in 10.0 mi SSW 12.7 mph - N/A   Clear
8:55 AM 33.8 °F 24.3 °F 23.0 °F 65% 30.21 in 10.0 mi SSW 13.8 mph - N/A   Clear
9:15 AM 37.4 °F 28.5 °F 24.8 °F 60% 30.21 in 10.0 mi SSW 15.0 mph - N/A   Clear
9:35 AM 39.2 °F 30.5 °F 24.8 °F 56% 30.21 in 10.0 mi SW 16.1 mph - N/A   Clear
9:55 AM 42.8 °F 35.4 °F 24.8 °F 49% 30.21 in 10.0 mi SSW 15.0 mph - N/A   Clear
10:15 AM 46.4 °F 39.2 °F 24.8 °F 43% 30.20 in 10.0 mi SW 18.4 mph 21.9 mph N/A   Clear
10:35 AM 48.2 °F - 24.8 °F 40% 30.19 in 10.0 mi SW 16.1 mph - N/A   Clear
10:55 AM 53.6 °F - 24.8 °F 33% 30.18 in 10.0 mi WSW 20.7 mph 24.2 mph N/A   Clear
11:15 AM 55.4 °F - 23.0 °F 29% 30.17 in 10.0 mi SW 24.2 mph 27.6 mph N/A   Clear
11:35 AM 57.2 °F - 21.2 °F 25% 30.16 in 10.0 mi WSW 26.5 mph 31.1 mph N/A   Clear
11:55 AM 57.2 °F - 19.4 °F 23% 30.15 in 10.0 mi SW 20.7 mph - N/A   Clear
12:15 PM 57.2 °F - 19.4 °F 23% 30.12 in 10.0 mi SW 28.8 mph 38.0 mph N/A   Clear
12:35 PM 59.0 °F - 17.6 °F 20% 30.11 in 10.0 mi SW 25.3 mph 33.4 mph N/A   Clear
1:15 PM 60.8 °F - 17.6 °F 19% 30.08 in 10.0 mi SW 27.6 mph 33.4 mph N/A   Clear
1:35 PM 60.8 °F - 17.6 °F 19% 30.05 in 10.0 mi SW 27.6 mph 34.5 mph N/A   Clear
1:55 PM 60.8 °F - 15.8 °F 17% 30.06 in 10.0 mi SW 25.3 mph 31.1 mph N/A   Clear
2:15 PM 60.8 °F - 15.8 °F 17% 30.06 in 10.0 mi WSW 21.9 mph 29.9 mph N/A   Clear
2:35 PM 60.8 °F - 15.8 °F 17% 30.06 in 10.0 mi WSW 25.3 mph 29.9 mph N/A   Clear
2:55 PM 62.6 °F - 15.8 °F 16% 30.06 in 10.0 mi SW 23.0 mph 27.6 mph N/A   Clear
3:15 PM 62.6 °F - 15.8 °F 16% 30.05 in 10.0 mi SW 18.4 mph 27.6 mph N/A   Clear
3:35 PM 62.6 °F - 15.8 °F 16% 30.05 in 10.0 mi WSW 19.6 mph - N/A   Clear
4:15 PM 62.6 °F - 15.8 °F 16% 30.04 in 10.0 mi WSW 19.6 mph - N/A   Clear
4:35 PM 60.8 °F - 15.8 °F 17% 30.05 in 10.0 mi SW 12.7 mph - N/A   Clear
4:55 PM 59.0 °F - 15.8 °F 19% 30.05 in 10.0 mi SSW 8.1 mph - N/A   Clear
5:15 PM 55.4 °F - 14.0 °F 20% 30.05 in 10.0 mi SSE 9.2 mph - N/A   Clear
5:35 PM 55.4 °F - 14.0 °F 20% 30.06 in 10.0 mi South 9.2 mph - N/A   Clear
5:55 PM 48.2 °F - 12.2 °F 24% 30.06 in 10.0 mi SW 8.1 mph - N/A   Clear
6:15 PM 48.2 °F - 14.0 °F 25% 30.07 in 10.0 mi WSW 12.7 mph - N/A   Clear
6:35 PM 46.4 °F 40.7 °F 12.2 °F 25% 30.08 in 10.0 mi SW 12.7 mph - N/A   Clear
6:55 PM 46.4 °F 40.7 °F 12.2 °F 25% 30.07 in 10.0 mi SW 12.7 mph - N/A   Clear
7:15 PM 46.4 °F 41.1 °F 12.2 °F 25% 30.07 in 10.0 mi SW 11.5 mph - N/A   Clear
7:35 PM 44.6 °F 39.2 °F 12.2 °F 27% 30.08 in 10.0 mi SW 10.4 mph - N/A   Clear
7:55 PM 42.8 °F 37.0 °F 12.2 °F 29% 30.09 in 10.0 mi SW 10.4 mph - N/A   Clear
8:15 PM 41.0 °F 35.2 °F 12.2 °F 31% 30.08 in 10.0 mi SW 9.2 mph - N/A   Clear
8:35 PM 42.8 °F 36.2 °F 12.2 °F 29% 30.08 in 10.0 mi SW 12.7 mph - N/A   Clear
8:55 PM 41.0 °F 34.7 °F 12.2 °F 31% 30.09 in 10.0 mi WSW 10.4 mph - N/A   Clear
9:15 PM 39.2 °F 31.6 °F 10.4 °F 31% 30.10 in 10.0 mi WSW 12.7 mph - N/A   Clear
9:35 PM 39.2 °F 35.9 °F 12.2 °F 33% 30.12 in 10.0 mi West 4.6 mph - N/A   Clear
9:55 PM 39.2 °F 33.6 °F 10.4 °F 31% 30.12 in 10.0 mi NNW 8.1 mph - N/A   Clear
10:15 PM 37.4 °F 31.4 °F 10.4 °F 33% 30.13 in 10.0 mi WNW 8.1 mph - N/A   Clear
10:35 PM 37.4 °F 29.8 °F 12.2 °F 36% 30.13 in 10.0 mi WNW 11.5 mph - N/A   Clear
10:55 PM 35.6 °F 27.1 °F 12.2 °F 38% 30.13 in 10.0 mi NNW 12.7 mph - N/A   Clear
11:15 PM 37.4 °F 29.3 °F 19.4 °F 48% 30.13 in 10.0 mi NNW 12.7 mph - N/A   Clear
11:35 PM 37.4 °F 30.8 °F 19.4 °F 48% 30.14 in 10.0 mi NNW 9.2 mph - N/A   Clear
11:55 PM 35.6 °F 28.0 °F 19.4 °F 52% 30.14 in 10.0 mi North 10.4 mph - N/A   Clear